Zurück zum Katalog

STARLINK-32474

AktivKommunikationVLEO
NORAD 61260·PAYLOAD·🇺🇸 United States

Gestartet Sep 25, 2024 von Vandenberg Space Force Base

Loading…

Nächste Überflüge (nächste 24 Stunden)

TLE

AktuellSource: CelesTrak SupGP

Epoche: Sep 15, 2026, 02:44 UTC

1 61260C 24175T   26258.11437500  .00009476  00000+0  28004-3 0  2588
2 61260  53.1590  31.0892 0001214  93.0671  97.1757 15.34377071    12

Verfolge STARLINK-32474 in Echtzeit mit AllMySat

Download on the App Store